Weather Roundup
Issued by NWS

Home | Current Version | Previous Version | Graphics & Text | Print | Product List | Glossary Off
Versions: 1 2 3 4 5 6 7 8 9 10 11 12 13 14 15 16 17 18 19 20 21 22 23 24 25 26 27 28 29 30 31 32 33 34 35 36 37 38 39 40 41 42 43 44 45 46 47 48 49 50

000
NZUS93 KARX 271410
HRRWXR

CURRENT HOURLY OBSERVATIONS ACROSS
MUCH OF THE UPPER MISSISSIPPI VALLEY
NATIONAL WEATHER SERVICE LA CROSSE WI
800 AM CST THU NOV 27 2014


...SOUTHEAST MINNESOTA...


CITY           SKY/WX    TMP DP  RH WIND       PRES   REMARKS
ROCHESTER      MOCLDY    -6  -9  86 NW7       30.43R WCI -20
ROCHESTER/MAYO FAIR       0  -5  79 NW7       30.45R WCI -13
WINONA         CLEAR      9   1  72 NW9       30.49R WCI  -5
AUSTIN         PTCLDY    -8 -11  84 NW8       30.45R WCI -23
ALBERT LEA     PTCLDY   -11 -15  84 NW2       30.45F
DODGE CENTER   MOCLDY    -6  -8  92 NW8       30.43S WCI -21
PRESTON        PTCLDY    -1  -5  82 NW8       30.42R WCI -15
OWATONNA       PTCLDY   -17 -22  76 W3        30.47S
FARIBAULT      PTCLDY    -9 -13  84 W6        30.48S WCI -23
$$

...ELSEWHERE IN MINNESOTA...


CITY           SKY/WX    TMP DP  RH WIND       PRES   REMARKS
MINNEAPOLIS    PTCLDY    -2  -7  79 NW5       30.50S WCI -12
INTNL FALLS    MOCLDY   -19 -25  73 CALM      30.44F
DULUTH         PTCLDY    -9 -15  75 NW10      30.38F WCI -27
RED WING         N/A      0  -6  78 NW5       30.49S WCI -10
REDWOOD FALLS  PTCLDY    -9 -13  83 N3        30.51F
MANKATO        PTCLDY    -9 -15  77 NW5       30.49S WCI -21
WORTHINGTON    PTCLDY    -9 -11  92 CALM      30.45F
FAIRMONT       PTCLDY    -9 -13  84 NW8       30.47S WCI -26
$$

...SOUTHWEST WISCONSIN...


CITY           SKY/WX    TMP DP  RH WIND       PRES   REMARKS
LA CROSSE      CLEAR      8  -1  66 N12       30.45R WCI  -7
PRAIRIE DU CHI PTCLDY    15   7  72 NW14      30.42R WCI   0
BOSCOBEL       CLOUDY    20  12  71 N6        30.40R WCI  12
LONE ROCK      LGT SNOW  22  12  65 NW12      30.38R WCI  10
PLATTEVILLE    CLOUDY    20  14  75 NW9       30.36R WCI  10
FORT MC COY    CLEAR      7   2  78 NW12      30.42S WCI  -8
CAMP DOUGLAS   FLURRIES  10   9  92 NW13      30.38R WCI  -5
VIROQUA        CLOUDY     9   5  82 NW14      30.36R WCI  -7
WIS DELLS      LGT SNOW  16  12  84 NW6       30.34R WCI   8
$$

...ELSEWHERE IN WISCONSIN...


CITY           SKY/WX    TMP DP  RH WIND       PRES   REMARKS
MILWAUKEE      MOCLDY    24  17  74 NW15      30.27R WCI  11
MADISON        MOCLDY    19  13  77 NW13      30.34R WCI   6
GREEN BAY      CLOUDY    16   8  71 N13       30.31R WCI   2
EAU CLAIRE     FAIR      -1  -7  75 NW5       30.45R WCI -11
BLACK RVR FLS  FAIR       5  -1  77 NW7       30.42R WCI  -7
MEDFORD        CLEAR      3  -1  81 N12       30.32S WCI -13
WAUSAU         CLEAR      8   3  80 NW9       30.32R WCI  -5
WIS RAPIDS     LGT SNOW  12   5  73 NW14      30.36R WCI  -3
MARSHFIELD     MOCLDY     7   2  80 NW9       30.34R WCI  -7
RICE LAKE      CLEAR     -3  -8  80 CALM      30.45R
$$

...NORTHEAST IOWA...


CITY           SKY/WX    TMP DP  RH WIND       PRES   REMARKS
DECORAH        CLEAR      5  -2  72 NW10G16   30.41R WCI -10
MASON CITY     PTCLDY    -9 -13  83 NW10      30.49R WCI -27
CHARLES CITY   PTCLDY    -4  -9  77 NW10      30.47R WCI -21
OELWEIN        PTCLDY     5  -2  72 NW15      30.44R WCI -13
$$

...ELSEWHERE IN IOWA...


CITY           SKY/WX    TMP DP  RH WIND       PRES   REMARKS
DES MOINES     MOCLDY     4  -4  69 NW9       30.52R WCI -10
IOWA CITY      CLOUDY    15  10  80 NW18      30.47R WCI  -2
FORT DODGE     PTCLDY    -6 -11  77 N7        30.51R WCI -20
$$

...NORTHERN ILLINOIS...


CITY           SKY/WX    TMP DP  RH WIND       PRES   REMARKS
CHICAGO-OHARE  CLOUDY    24  18  77 NW12      30.29R WCI  13
CHICAGO-MIDWAY CLOUDY    26  20  77 W8        30.30R WCI  18
MOLINE         LGT SNOW  23  18  81 W16       30.40R WCI  10
ROCKFORD       FLURRIES  24  18  77 NW12      30.35R WCI  13
PEORIA         CLOUDY    27  20  75 NW6       30.38S WCI  20
$$

NOTE: "FAIR" INDICATES FEW OR NO CLOUDS BELOW 12,000 FEET WITH NO
SIGNIFICANT WEATHER AND/OR OBSTRUCTIONS TO VISIBILITY. WIND
SPEEDS ARE IN MILES-PER-HOUR.



USA.gov is the U.S. government's official web portal to all federal, state and local government web resources and services.